RYR52W GMTT-LEVC

Flight info

Callsign RYR52W
Flight time 1h 2m
Altitude 34000
Route LAMAD M143 GALTO N869 PIMOS DCT RIXUR DCT PEPAS DCT ARPEX DCT KOSEL DCT BUDIT DCT ETURA DCT XEBAR DCT POBOS M985 ASTRO
Aircraft B738/M-SDE2E3FGHIRWXY/LB1

Departure

Time 2026-04-26 11:48
Airport Tangier Ibn Battuta Airport (GMTT)

Arrival

Time 2026-04-26 12:51
Airport Valencia Airport (LEVC)
Time Latitude Longitude Altitude Speed Heading
2026-04-26 11:05 35.72535 -5.91273 44 ft 0 kts 356°
2026-04-26 11:35 35.72528 -5.91273 45 ft 4 kts 356°
2026-04-26 11:35 35.72501 -5.91270 43 ft 4 kts 354°
2026-04-26 11:35 35.72483 -5.91267 41 ft 4 kts 346°
2026-04-26 11:36 35.72454 -5.91252 45 ft 4 kts 314°
2026-04-26 11:36 35.72445 -5.91226 46 ft 4 kts 266°
2026-04-26 11:36 35.72447 -5.91198 47 ft 1 kts 265°
2026-04-26 11:40 35.72451 -5.91213 46 ft 6 kts 291°
2026-04-26 11:40 35.72467 -5.91244 45 ft 4 kts 305°
2026-04-26 11:40 35.72475 -5.91281 46 ft 5 kts 269°
2026-04-26 11:41 35.72458 -5.91320 45 ft 6 kts 236°
2026-04-26 11:42 35.72764 -5.91708 39 ft 12 kts 356°
2026-04-26 11:43 35.72843 -5.91717 39 ft 11 kts 355°
2026-04-26 11:43 35.72919 -5.91728 37 ft 11 kts 339°
2026-04-26 11:43 35.72954 -5.91807 38 ft 12 kts 275°
2026-04-26 11:43 35.72966 -5.91928 36 ft 17 kts 277°
2026-04-26 11:44 35.72983 -5.92117 34 ft 25 kts 277°
2026-04-26 11:44 35.73002 -5.92313 30 ft 22 kts 277°
2026-04-26 11:44 35.73020 -5.92499 29 ft 22 kts 277°
2026-04-26 11:44 35.73037 -5.92682 27 ft 21 kts 276°
2026-04-26 11:45 35.73054 -5.92865 24 ft 23 kts 276°
2026-04-26 11:45 35.73074 -5.93070 24 ft 25 kts 277°
2026-04-26 11:45 35.73093 -5.93280 19 ft 24 kts 276°
2026-04-26 11:45 35.73112 -5.93476 16 ft 23 kts 277°
2026-04-26 11:46 35.73130 -5.93666 14 ft 22 kts 277°
2026-04-26 11:46 35.73146 -5.93842 11 ft 13 kts 276°
2026-04-26 11:46 35.73156 -5.93949 10 ft 11 kts 277°
2026-04-26 11:46 35.73189 -5.94029 9 ft 11 kts 319°
2026-04-26 11:47 35.73258 -5.94053 9 ft 10 kts
2026-04-26 11:47 35.73319 -5.94011 10 ft 10 kts 51°
2026-04-26 11:47 35.73334 -5.93930 12 ft 10 kts 96°
2026-04-26 11:47 35.73321 -5.93791 13 ft 38 kts 96°
2026-04-26 11:48 35.73266 -5.93196 17 ft 100 kts 96°
2026-04-26 11:48 35.73165 -5.92156 140 ft 137 kts 96°
2026-04-26 11:48 35.73013 -5.90956 654 ft 144 kts 97°
2026-04-26 11:48 35.72882 -5.89743 1278 ft 148 kts 96°
2026-04-26 11:49 35.72770 -5.88446 1840 ft 161 kts 96°
2026-04-26 11:49 35.72646 -5.86965 2036 ft 185 kts 96°
2026-04-26 11:49 35.72511 -5.85356 2363 ft 192 kts 96°
2026-04-26 11:49 35.72372 -5.83665 2633 ft 207 kts 96°
2026-04-26 11:50 35.72221 -5.81804 2802 ft 229 kts 95°
2026-04-26 11:50 35.72211 -5.79823 3513 ft 232 kts 81°
2026-04-26 11:50 35.72596 -5.77869 4269 ft 237 kts 78°
2026-04-26 11:50 35.73018 -5.75873 4845 ft 250 kts 78°
2026-04-26 11:51 35.73468 -5.73732 5284 ft 265 kts 77°
2026-04-26 11:51 35.73926 -5.71545 6155 ft 265 kts 76°
2026-04-26 11:51 35.74391 -5.69308 6747 ft 275 kts 77°
2026-04-26 11:51 35.74863 -5.67025 7506 ft 276 kts 77°
2026-04-26 11:52 35.75331 -5.64748 8266 ft 279 kts 77°
2026-04-26 11:52 35.75652 -5.63184 8832 ft 280 kts 77°
2026-04-26 11:52 35.76288 -5.60069 9884 ft 286 kts 77°
2026-04-26 11:52 35.76781 -5.57656 10476 ft 297 kts 77°
2026-04-26 11:53 35.77306 -5.55074 10663 ft 322 kts 77°
2026-04-26 11:53 35.77675 -5.53257 10772 ft 338 kts 76°
2026-04-26 11:53 35.78402 -5.49675 11315 ft 353 kts 77°
2026-04-26 11:54 35.79371 -5.43690 12731 ft 360 kts 81°
2026-04-26 11:54 35.79769 -5.40628 13484 ft 363 kts 82°
2026-04-26 11:54 35.80166 -5.37550 14197 ft 367 kts 81°
2026-04-26 11:54 35.80580 -5.34418 14820 ft 372 kts 81°
2026-04-26 11:55 35.81003 -5.31268 15542 ft 375 kts 81°
2026-04-26 11:55 35.81431 -5.28122 16168 ft 381 kts 80°
2026-04-26 11:55 35.81876 -5.24872 16800 ft 386 kts 80°
2026-04-26 11:55 35.82323 -5.21597 17467 ft 390 kts 80°
2026-04-26 11:56 35.82789 -5.18292 18088 ft 395 kts 77°
2026-04-26 11:56 35.83796 -5.15122 18632 ft 399 kts 57°
2026-04-26 11:56 35.85590 -5.12525 19231 ft 400 kts 39°
2026-04-26 11:56 35.87891 -5.10581 19872 ft 401 kts 32°
2026-04-26 11:57 35.90267 -5.08757 20445 ft 405 kts 31°
2026-04-26 11:57 35.92682 -5.06914 21003 ft 409 kts 31°
2026-04-26 11:57 35.94284 -5.05682 21391 ft 411 kts 32°
2026-04-26 11:57 35.96715 -5.03793 21929 ft 414 kts 32°
2026-04-26 11:58 35.99156 -5.01877 22492 ft 417 kts 32°
2026-04-26 11:58 36.01619 -4.99931 23013 ft 421 kts 32°
2026-04-26 11:58 36.04099 -4.97965 23544 ft 424 kts 32°
2026-04-26 11:58 36.06590 -4.95986 23992 ft 427 kts 32°
2026-04-26 11:59 36.09091 -4.94000 24484 ft 428 kts 32°
2026-04-26 11:59 36.11608 -4.91999 24985 ft 429 kts 32°
2026-04-26 11:59 36.14118 -4.89983 25442 ft 432 kts 34°
2026-04-26 11:59 36.16451 -4.87631 25836 ft 436 kts 44°
2026-04-26 12:00 36.18564 -4.84941 26286 ft 438 kts 45°
2026-04-26 12:00 36.20660 -4.82195 26712 ft 439 kts 45°
2026-04-26 12:00 36.22733 -4.79466 27097 ft 442 kts 45°
2026-04-26 12:00 36.24851 -4.76684 27510 ft 444 kts 45°
2026-04-26 12:01 36.26978 -4.73906 27903 ft 446 kts 45°
2026-04-26 12:01 36.29127 -4.71113 28307 ft 448 kts 45°
2026-04-26 12:01 36.31284 -4.68317 28662 ft 450 kts 45°
2026-04-26 12:01 36.33453 -4.65509 29043 ft 452 kts 45°
2026-04-26 12:02 36.35634 -4.62686 29395 ft 454 kts 45°
2026-04-26 12:02 36.37813 -4.59863 29947 ft 451 kts 45°
2026-04-26 12:02 36.39980 -4.57053 30451 ft 449 kts 45°
2026-04-26 12:02 36.42140 -4.54251 30852 ft 449 kts 45°
2026-04-26 12:03 36.44304 -4.51441 31123 ft 451 kts 45°
2026-04-26 12:03 36.46473 -4.48621 31492 ft 451 kts 45°
2026-04-26 12:03 36.48637 -4.45803 31910 ft 449 kts 45°
2026-04-26 12:03 36.50793 -4.42995 32315 ft 448 kts 45°
2026-04-26 12:04 36.52944 -4.40191 32673 ft 448 kts 45°
2026-04-26 12:04 36.55069 -4.37417 33018 ft 449 kts 45°
2026-04-26 12:04 36.57248 -4.34572 33408 ft 448 kts 45°
2026-04-26 12:04 36.59365 -4.31805 33775 ft 448 kts 45°
2026-04-26 12:05 36.61539 -4.28960 34112 ft 448 kts 45°
2026-04-26 12:05 36.65844 -4.23324 34128 ft 453 kts 45°
2026-04-26 12:06 36.70152 -4.17669 34108 ft 447 kts 45°
2026-04-26 12:06 36.74422 -4.12056 34120 ft 446 kts 45°
2026-04-26 12:07 36.78695 -4.06430 34120 ft 447 kts 45°
2026-04-26 12:07 36.82974 -4.00785 34121 ft 448 kts 45°
2026-04-26 12:08 36.87256 -3.95128 34118 ft 448 kts 45°
2026-04-26 12:08 36.91536 -3.89462 34122 ft 448 kts 45°
2026-04-26 12:09 36.95818 -3.83784 34113 ft 449 kts 45°
2026-04-26 12:09 37.00073 -3.78131 34109 ft 448 kts 46°
2026-04-26 12:10 37.04342 -3.72449 34108 ft 447 kts 46°
2026-04-26 12:10 37.08605 -3.66768 34105 ft 446 kts 46°
2026-04-26 12:11 37.12874 -3.61116 34106 ft 445 kts 45°
2026-04-26 12:11 37.17189 -3.55560 34104 ft 444 kts 45°
2026-04-26 12:12 37.21493 -3.50008 34114 ft 444 kts 45°
2026-04-26 12:12 37.25792 -3.44440 34105 ft 443 kts 45°
2026-04-26 12:13 37.30052 -3.38912 34105 ft 443 kts 46°
2026-04-26 12:13 37.34327 -3.33355 34095 ft 442 kts 46°
2026-04-26 12:14 37.38582 -3.27813 34092 ft 440 kts 46°
2026-04-26 12:14 37.42838 -3.22261 34095 ft 439 kts 46°
2026-04-26 12:15 37.47069 -3.16733 34095 ft 438 kts 46°
2026-04-26 12:15 37.51291 -3.11206 34096 ft 437 kts 46°
2026-04-26 12:16 37.55505 -3.05680 34092 ft 436 kts 46°
2026-04-26 12:16 37.59679 -3.00201 34104 ft 436 kts 46°
2026-04-26 12:17 37.63889 -2.94683 34108 ft 435 kts 46°
2026-04-26 12:17 37.68073 -2.89186 34114 ft 434 kts 46°
2026-04-26 12:18 37.72252 -2.83686 34114 ft 434 kts 46°
2026-04-26 12:18 37.76442 -2.78160 34113 ft 435 kts 46°
2026-04-26 12:19 37.80627 -2.72613 34115 ft 436 kts 46°
2026-04-26 12:19 37.84798 -2.67071 34132 ft 437 kts 46°
2026-04-26 12:20 37.88987 -2.61496 34129 ft 438 kts 46°
2026-04-26 12:20 37.93182 -2.55903 34130 ft 437 kts 46°
2026-04-26 12:21 37.97366 -2.50316 34126 ft 436 kts 46°
2026-04-26 12:21 38.01545 -2.44736 34128 ft 435 kts 46°
2026-04-26 12:22 38.05702 -2.39179 34133 ft 434 kts 46°
2026-04-26 12:22 38.09849 -2.33623 34141 ft 433 kts 46°
2026-04-26 12:23 38.13964 -2.28100 34161 ft 433 kts 46°
2026-04-26 12:23 38.18118 -2.22557 34142 ft 433 kts 44°
2026-04-26 12:23 38.20490 -2.20201 34148 ft 434 kts 32°
2026-04-26 12:24 38.23162 -2.18381 34148 ft 435 kts 24°
2026-04-26 12:24 38.28988 -2.16246 34156 ft 438 kts 14°
2026-04-26 12:25 38.37922 -2.13655 34156 ft 440 kts 14°
2026-04-26 12:25 38.43889 -2.11831 34016 ft 443 kts 15°
2026-04-26 12:26 38.46897 -2.10904 33377 ft 445 kts 15°
2026-04-26 12:26 38.49827 -2.09688 32707 ft 442 kts 26°
2026-04-26 12:26 38.52462 -2.07698 32040 ft 439 kts 37°
2026-04-26 12:26 38.54757 -2.05131 31370 ft 438 kts 48°
2026-04-26 12:27 38.56650 -2.02115 30900 ft 433 kts 52°
2026-04-26 12:27 38.58472 -1.99061 30386 ft 430 kts 52°
2026-04-26 12:27 38.60257 -1.96066 29830 ft 426 kts 52°
2026-04-26 12:27 38.62055 -1.93076 29295 ft 422 kts 52°
2026-04-26 12:28 38.63843 -1.90127 28780 ft 417 kts 52°
2026-04-26 12:28 38.65615 -1.87218 28250 ft 413 kts 52°
2026-04-26 12:28 38.67373 -1.84337 27744 ft 408 kts 52°
2026-04-26 12:28 38.69114 -1.81482 27233 ft 405 kts 52°
2026-04-26 12:29 38.70838 -1.78650 26738 ft 401 kts 52°
2026-04-26 12:29 38.72546 -1.75843 26247 ft 398 kts 52°
2026-04-26 12:29 38.75919 -1.70286 25284 ft 392 kts 52°
2026-04-26 12:30 38.77564 -1.67572 24810 ft 389 kts 52°
2026-04-26 12:30 38.79241 -1.64801 24330 ft 387 kts 52°
2026-04-26 12:30 38.80866 -1.62115 23847 ft 386 kts 52°
2026-04-26 12:31 38.84139 -1.56697 22781 ft 381 kts 52°
2026-04-26 12:31 38.85757 -1.54016 22294 ft 378 kts 52°
2026-04-26 12:31 38.87357 -1.51363 21812 ft 375 kts 52°
2026-04-26 12:31 38.88947 -1.48724 21321 ft 372 kts 52°
2026-04-26 12:32 38.90521 -1.46110 20864 ft 368 kts 53°
2026-04-26 12:32 38.92081 -1.43515 20404 ft 365 kts 53°
2026-04-26 12:32 38.95164 -1.38383 19488 ft 360 kts 53°
2026-04-26 12:33 38.96690 -1.35839 19033 ft 358 kts 53°
2026-04-26 12:33 38.98218 -1.33290 18458 ft 360 kts 53°
2026-04-26 12:33 38.99744 -1.30742 17910 ft 359 kts 53°
2026-04-26 12:33 39.01262 -1.28207 17415 ft 356 kts 53°
2026-04-26 12:34 39.02598 -1.25974 17003 ft 354 kts 53°
2026-04-26 12:34 39.04096 -1.23473 16540 ft 351 kts 53°
2026-04-26 12:34 39.05579 -1.20998 16077 ft 348 kts 53°
2026-04-26 12:34 39.07049 -1.18542 15647 ft 346 kts 53°
2026-04-26 12:35 39.08511 -1.16098 15199 ft 343 kts 53°
2026-04-26 12:35 39.09964 -1.13667 14764 ft 341 kts 54°
2026-04-26 12:35 39.11405 -1.11252 14321 ft 339 kts 54°
2026-04-26 12:35 39.12838 -1.08849 13878 ft 337 kts 54°
2026-04-26 12:36 39.14262 -1.06461 13395 ft 335 kts 54°
2026-04-26 12:36 39.15675 -1.04089 12936 ft 332 kts 54°
2026-04-26 12:36 39.17076 -1.01735 12495 ft 330 kts 54°
2026-04-26 12:36 39.18464 -0.99400 12070 ft 327 kts 54°
2026-04-26 12:37 39.19841 -0.97083 11619 ft 323 kts 54°
2026-04-26 12:37 39.21181 -0.94826 11231 ft 320 kts 54°
2026-04-26 12:37 39.22534 -0.92545 10804 ft 319 kts 54°
2026-04-26 12:37 39.23866 -0.90299 10612 ft 309 kts 54°
2026-04-26 12:38 39.25152 -0.88132 10477 ft 300 kts 54°
2026-04-26 12:38 39.26400 -0.86025 10341 ft 291 kts 55°
2026-04-26 12:38 39.27612 -0.83980 10219 ft 282 kts 55°
2026-04-26 12:38 39.28806 -0.82014 10100 ft 274 kts 49°
2026-04-26 12:39 39.30420 -0.80809 10021 ft 272 kts 14°
2026-04-26 12:39 39.32300 -0.80939 9828 ft 276 kts 346°
2026-04-26 12:39 39.34034 -0.82020 9573 ft 277 kts 334°
2026-04-26 12:39 39.35732 -0.83201 9266 ft 277 kts 337°
2026-04-26 12:40 39.37482 -0.84222 8967 ft 276 kts 341°
2026-04-26 12:40 39.39284 -0.85079 8680 ft 275 kts 345°
2026-04-26 12:40 39.41133 -0.85783 8375 ft 276 kts 349°
2026-04-26 12:40 39.43008 -0.86328 8018 ft 278 kts 353°
2026-04-26 12:41 39.44898 -0.86716 7718 ft 278 kts 356°
2026-04-26 12:41 39.46822 -0.86949 7393 ft 277 kts 360°
2026-04-26 12:41 39.48742 -0.87020 7112 ft 274 kts
2026-04-26 12:41 39.50645 -0.86932 6809 ft 272 kts
2026-04-26 12:42 39.52516 -0.86691 6549 ft 269 kts 11°
2026-04-26 12:42 39.54363 -0.86299 6239 ft 267 kts 15°
2026-04-26 12:42 39.56126 -0.85778 6187 ft 251 kts 18°
2026-04-26 12:42 39.57750 -0.85195 6085 ft 233 kts 20°
2026-04-26 12:43 39.59225 -0.84556 5884 ft 217 kts 24°
2026-04-26 12:43 39.60638 -0.83832 5461 ft 220 kts 27°
2026-04-26 12:43 39.61876 -0.82744 5051 ft 214 kts 51°
2026-04-26 12:43 39.62521 -0.81100 5002 ft 200 kts 77°
2026-04-26 12:44 39.62588 -0.79325 4988 ft 193 kts 96°
2026-04-26 12:44 39.62169 -0.77748 4955 ft 182 kts 123°
2026-04-26 12:44 39.61577 -0.76981 4811 ft 182 kts 135°
2026-04-26 12:44 39.60644 -0.75932 4696 ft 173 kts 134°
2026-04-26 12:45 39.59767 -0.74930 4626 ft 162 kts 134°
2026-04-26 12:45 39.58941 -0.73988 4522 ft 152 kts 135°
2026-04-26 12:45 39.58335 -0.72914 4204 ft 150 kts 110°
2026-04-26 12:45 39.57896 -0.71671 3870 ft 154 kts 114°
2026-04-26 12:46 39.57428 -0.70471 3665 ft 146 kts 114°
2026-04-26 12:46 39.56977 -0.69300 3466 ft 146 kts 114°
2026-04-26 12:46 39.56525 -0.68121 3288 ft 148 kts 113°
2026-04-26 12:46 39.56062 -0.66905 3077 ft 150 kts 112°
2026-04-26 12:47 39.55611 -0.65725 2878 ft 146 kts 111°
2026-04-26 12:47 39.55166 -0.64556 2684 ft 146 kts 112°
2026-04-26 12:47 39.54717 -0.63378 2505 ft 145 kts 112°
2026-04-26 12:47 39.54270 -0.62202 2311 ft 145 kts 113°
2026-04-26 12:48 39.53818 -0.61015 2083 ft 146 kts 114°
2026-04-26 12:48 39.53373 -0.59850 1916 ft 144 kts 113°
2026-04-26 12:48 39.52932 -0.58686 1707 ft 145 kts 114°
2026-04-26 12:48 39.52491 -0.57521 1627 ft 138 kts 113°
2026-04-26 12:49 39.52064 -0.56391 1403 ft 143 kts 114°
2026-04-26 12:49 39.51631 -0.55228 1186 ft 143 kts 115°
2026-04-26 12:49 39.51177 -0.54060 1003 ft 146 kts 114°
2026-04-26 12:49 39.50739 -0.52876 780 ft 144 kts 116°
2026-04-26 12:50 39.50300 -0.51738 573 ft 139 kts 115°
2026-04-26 12:50 39.49875 -0.50631 400 ft 138 kts 112°
2026-04-26 12:50 39.49444 -0.49499 237 ft 138 kts 114°
2026-04-26 12:50 39.49076 -0.48538 212 ft 91 kts 116°
2026-04-26 12:51 39.48881 -0.48027 207 ft 49 kts 116°
2026-04-26 12:51 39.48741 -0.47655 203 ft 44 kts 116°
2026-04-26 12:51 39.48653 -0.47397 195 ft 27 kts 101°
2026-04-26 12:51 39.48676 -0.47235 195 ft 14 kts 58°
2026-04-26 12:52 39.48717 -0.47189 190 ft 0 kts 25°
2026-04-26 12:52 39.48718 -0.47188 186 ft 1 kts 24°
2026-04-26 12:52 39.48725 -0.47185 186 ft 1 kts 19°
2026-04-26 12:52 39.48735 -0.47182 183 ft 2 kts 11°
2026-04-26 12:53 39.48749 -0.47180 194 ft 3 kts
2026-04-26 12:53 39.48794 -0.47189 189 ft 11 kts 340°
2026-04-26 12:53 39.48871 -0.47232 191 ft 12 kts 338°
2026-04-26 12:53 39.48932 -0.47301 193 ft 12 kts 295°
2026-04-26 12:54 39.48967 -0.47397 201 ft 12 kts 296°
2026-04-26 12:54 39.49003 -0.47489 199 ft 11 kts 297°
2026-04-26 12:54 39.49032 -0.47563 203 ft 0 kts 295°
2026-04-26 12:56 39.49033 -0.47565 197 ft 1 kts 295°
2026-04-26 12:56 39.49042 -0.47591 202 ft 6 kts 294°
2026-04-26 12:56 39.49035 -0.47649 206 ft 7 kts 234°
2026-04-26 12:56 39.49016 -0.47684 202 ft 0 kts 232°
2026-04-26 12:57 39.49015 -0.47685 201 ft 1 kts 232°
2026-04-26 12:57 39.49015 -0.47686 201 ft 0 kts 232°